437  
ASUS42 KTBW 021916  
RWRFL  
FLORIDA REGIONAL WEATHER ROUNDUP  
NATIONAL WEATHER SERVICE TAMPA BAY RUSKIN FL  
200 PM EST FRI DEC 02 2016  
 
NOTE: "FAIR" INDICATES FEW OR NO CLOUDS BELOW 12,000 FEET WITH NO  
SIGNIFICANT WEATHER AND/OR S TO VISIBILITY
.  
 
FLZ001>010-012>015-112-114-115-022000-  
PANHANDLE FLORIDA  
 
CITY SKY/WX TMP DP RH WIND PRES REMARKS
 
PENSACOLA SUNNY 66 27 23 NE9 30.20S  
PENSACOLA NAS PTSUNNY 66 25 21 NE13 30.19F  
MILTON NAS PTSUNNY 66 27 23 VRB3 30.20  
CRESTVIEW SUNNY 68 27 21 N8 30.21F  
DUKE FIELD MOSUNNY 66 27 23 NE9 30.18F  
VALPARAISO PTSUNNY 68 26 20 N14 30.18F  
MARY ESTHER MOSUNNY 68 26 20 VRB7 30.17F  
TRI COUNTY FAIR 66 27 23 N7 30.19F  
PANAMA CITY FAIR 67 28 23 NE9 30.16F  
TYNDALL AFB SUNNY 67 31 26 N10 30.16F  
APALACHICOLA SUNNY 68 33 27 NE9 30.15F  
 
STATION/POSITION SKY/WX TEMP WIND PRES WAVE SWELL
 
AIR SEA DIR/SP/G HT/PER HT/PER  
(F) (DEG/KT/KT) (MB) (FT/S) (FT/S)  
30.1N 87.6W 61 72 50/ 14/ 17 1022.5F 4/ 6  
29.2N 88.2W 68 76 80/ 16/ 21 1020.9F 5/ 6  
28.8N 86.0W 64 76 1021.8 5/ 6  
PANAMA CITY BEAC 64 67 50/ 10/ 16 1021.6F  
TOWER C 60 30/ 15/ 17 1021.4F  
28.5N 84.5W 64 75 50/ 16/ 19 1020.1F 4/ 6  
 

 
FLZ011-016>038-118-127-128-134-139-239-022000-  
NORTH FLORIDA  
 
CITY SKY/WX TMP DP RH WIND PRES REMARKS
 
MARIANNA SUNNY 67 28 23 NE13 30.18F  
TALLAHASSEE MOSUNNY 68 28 22 N13 30.16F  
PERRY SUNNY 68 32 26 NE10 30.15F  
CROSS CITY SUNNY 68 34 28 N12 30.14F  
LAKE CITY FAIR 64 34 32 N10 30.15F  
GAINESVILLE SUNNY 70 35 27 N5 30.14F  
WILLISTON SUNNY 72 34 25 N8 30.14F  
PALATKA FAIR 66 37 34 N5 30.15S  
MAYPORT NAS MOSUNNY 65 35 33 N7 30.14F  
JACKSONVILLE MOSUNNY 66 35 31 NW9 30.14F  
JAX NAS MOSUNNY 65 36 34 N7 30.15F  
FERNANDINA BEA FAIR 68 36 30 NW7 30.13F  
ST AUGUSTINE SUNNY 64 45 49 NE9 30.15F  
PALM COAST SUNNY N/A N/A N/A N12 30.13F  
 
STATION/POSITION SKY/WX TEMP WIND PRES WAVE SWELL
 
AIR SEA DIR/SP/G HT/PER HT/PER  
(F) (DEG/KT/KT) (MB) (FT/S) (FT/S)  
SHELL POINT NOT AVBL  
KEATON BEACH 65 20/ 7/ 12 1020.3F  
CEDAR KEY 65 60/ 6/ 7 1020.5F  
FERNANDINA 63 68 320/ 4/ 8 1020.4F  
30.7N 81.3W 67 N/A 2/10  
MAYPORT 62 67 330/ 6/ 10 1020.6F  
31.4N 80.9W 57 65 320/ 10/ 14 1020.6F 2/ 9 2/ 9  
ST AUGUSTINE 60 67 10/ 10/ 12 1021.5F  
 

 
FLZ040-043>046-052-053-057-058-063-144-022000-  
INTERIOR CENTRAL FLORIDA  
 
CITY SKY/WX TMP DP RH WIND PRES REMARKS
 
THE VILLAGES N/A 70 50 49 SE6 30.03F  
LEESBURG SUNNY 72 35 25 N5 30.13F  
SANFORD SUNNY 73 42 32 N6 30.11F  
ORLANDO EXEC SUNNY 74 43 32 VRB6 30.11F  
ORLANDO INTL SUNNY 75 43 31 N7 30.11F  
KISSIMMEE SUNNY 74 44 34 N7 30.12F  
WINTER HAVEN SUNNY 74 42 31 N9 30.11F  
BARTOW SUNNY 73 45 35 NE10 30.10F  
OKEECHOBEE SUNNY 79 63 57 NE6 30.07F  
 

 
FLZ041-047-054-059-064-141-147-022000-  
EAST CENTRAL FLORIDA  
 
CITY SKY/WX TMP DP RH WIND PRES REMARKS
 
ORMOND BEACH SUNNY 64 50 59 E9 30.13F  
DAYTONA BEACH SUNNY 69 51 52 NE12 30.13F  
DELAND SUNNY 70 43 37 NW9 30.11F  
NEW SMYRNA BEA SUNNY 64 50 59 N17G23 30.11F  
JFK SPACE CTR SUNNY 69 53 56 N12 30.10F  
TITUSVILLE SUNNY 70 52 52 N14 30.12F  
CAPE CANAVERAL SUNNY 71 55 57 N15 30.09F  
PATRICK AFB SUNNY 72 58 59 N17 30.09F  
MELBOURNE SUNNY 73 58 59 N15 30.09F  
VERO BEACH SUNNY 75 62 64 N10G20 30.08F  
FT PIERCE SUNNY 77 64 64 N9 30.07F  
STUART MOSUNNY 81 66 61 N12 30.08F  
 
STATION/POSITION SKY/WX TEMP WIND PRES WAVE SWELL
 
AIR SEA DIR/SP/G HT/PER HT/PER  
(F) (DEG/KT/KT) (MB) (FT/S) (FT/S)  
TRIDENT PIER 69 72 330/ 10/ 16 1019.2F  
28.4N 80.5W 73 N/A 2/ 9  
 

 
FLZ050-056-061-142-242-148-248-149-249-151-251-155-255-  
160-260-022000-  
WEST CENTRAL FLORIDA  
 
CITY SKY/WX TMP DP RH WIND PRES REMARKS
 
CRYSTAL RIVER FAIR 72 36 26 NE6 30.13F  
INVERNESS FAIR 70 41 35 N7 30.13F  
BROOKSVILLE SUNNY 68 37 32 N8 30.12F  
CLEARWATER AIR FAIR 72 37 28 N7 30.09F  
ST PETE CLEARW SUNNY 73 42 32 NE8 30.10F  
TAMPA INTL SUNNY 75 38 26 N10 30.11F  
TAMPA EXEC SUNNY 79 39 24 N6 30.11F  
PLANT CITY SUNNY 75 46 35 N7 30.12F  
MACDILL AFB SUNNY 78 41 27 NE7 30.10F  
PETER O KNIGHT SUNNY 77 43 29 NE7 30.10F  
ST PETERSBURG SUNNY 71 46 40 NE10 30.08F  
SARASOTA SUNNY 78 44 29 NE8 30.07F  
VENICE FAIR 79 52 38 VRB3G16 30.07F  
 
STATION/POSITION SKY/WX TEMP WIND PRES WAVE SWELL
 
AIR SEA DIR/SP/G HT/PER HT/PER  
(F) (DEG/KT/KT) (MB) (FT/S) (FT/S)  
CLEARWATER BEACH 65 69 340/ 13/ 14 1019.7F  
MIDDLE TAMPA BAY 67 40/ 11/ 13 1019.6F  
VENICE 77 71 20/ 8/ 9 1017.7F  
 

 
FLZ066-069-070-075>078-162-262-165-265-022000-  
SOUTHWEST FLORIDA AND KEYS  
 
CITY SKY/WX TMP DP RH WIND PRES REMARKS
 
PUNTA GORDA SUNNY 80 56 43 NE10 30.07F  
FT MYERS SUNNY 81 63 54 E6 30.04F  
SOUTHWEST INTL SUNNY 81 61 50 NE10 30.05F  
NAPLES SUNNY 84 66 54 N7 30.02F  
MARCO ISLAND SUNNY 84 66 54 NE9 30.03F  
MARATHON PTSUNNY 81 75 82 NE12 30.00F  
KEY WEST NAS PTSUNNY 78 74 87 E10 30.00F  
KEY WEST INTL CLOUDY 79 74 84 E7 30.00F  
 
STATION/POSITION SKY/WX TEMP WIND PRES WAVE SWELL
 
AIR SEA DIR/SP/G HT/PER HT/PER  
(F) (DEG/KT/KT) (MB) (FT/S) (FT/S)  
NAPLES 73 1016.8F  
26.0N 85.6W 73 78 60/ 16/ 21 1018.3F 4/ 5  
DRY TORTUGAS 74 50/ 13/ 14 1016.6F  
SAND KEY 76 90/ 10/ 11 1016.5F  
LONG KEY 78 79 50/ 8/ 9 1016.4F  
MOLASSES REEF 78 80 50/ 12/ 13 1016.5F  
 

 
FLZ067-068-071>074-168-172>174-022000-  
SOUTHEAST FLORIDA  
 
CITY SKY/WX TMP DP RH WIND PRES REMARKS
 
W PALM BEACH MOSUNNY 80 69 69 N12 30.05F  
BOCA RATON MOSUNNY 82 72 69 NE20 30.03F  
FT LAUDER-EXEC MOSUNNY 81 70 69 NE10 30.02F  
FT LAUDERDALE PTSUNNY 82 73 74 NE9 30.01F  
POMPANO BEACH CLOUDY 82 73 74 NE16 30.03F  
PEMBROKE PINES PTSUNNY 82 70 66 NE9 30.03F  
OPA LOCKA CLOUDY 82 72 71 NE10 30.02F  
MIAMI PTSUNNY 81 72 74 N5 30.02F  
WEST KENDALL CLOUDY 83 72 69 N8 30.02F  
HOMESTEAD MOSUNNY 82 76 81 NE10 30.01F  
 
STATION/POSITION SKY/WX TEMP WIND PRES WAVE SWELL
 
AIR SEA DIR/SP/G HT/PER HT/PER  
(F) (DEG/KT/KT) (MB) (FT/S) (FT/S)  
PORT EVERGLADES 79 40/ 6/ 12 1016.6F  
VIRGINIA KEY 80 83 40/ 2/ 5 1017.1F  
LAKE WORTH 76 79 10/ 19/ 21 1017.1F  
FOWEY ROCKS 78 78 20/ 7/ 8 1017.2F  
 

 
 
 
 
CLICK HERE TO GO TO PREVIOUS BULLETINS.

The Nexlab FL Page Main Text Page